TimePDT,TemperatureF,Dew PointF,Humidity,Sea Level PressureIn,VisibilityMPH,Wind Direction,Wind SpeedMPH,Gust SpeedMPH,PrecipitationIn,Events,Conditions,WindDirDegrees,DateUTC
12:53 AM,68.0,61.0,78,29.87,10.0,Calm,Calm,-,N/A,Fog,Patches of Fog,0,2012-10-16 07:53:00
1:53 AM,66.2,60.8,83,29.86,10.0,Calm,Calm,-,N/A,Fog,Patches of Fog,0,2012-10-16 08:53:00
2:53 AM,64.4,60.8,88,29.85,10.0,Calm,Calm,-,N/A,Fog,Patches of Fog,0,2012-10-16 09:53:00
3:53 AM,64.4,57.2,77,29.84,10.0,ENE,3.5,-,N/A,Fog,Patches of Fog,70,2012-10-16 10:53:00
4:53 AM,62.6,57.2,82,29.83,10.0,East,3.5,-,N/A,Fog,Patches of Fog,90,2012-10-16 11:53:00
5:53 AM,64.4,60.8,88,29.83,10.0,Calm,Calm,-,N/A,Fog,Patches of Fog,0,2012-10-16 12:53:00
6:53 AM,64.9,59.0,81,29.84,10.0,Calm,Calm,-,N/A,Fog,Patches of Fog,0,2012-10-16 13:53:00
7:53 AM,64.4,62.6,94,29.85,10.0,WSW,6.9,-,N/A,Fog,Patches of Fog,250,2012-10-16 14:53:00
8:06 AM,64.4,62.6,94,29.86,0.8,WSW,5.8,-,N/A,Fog,Patches of Fog,250,2012-10-16 15:06:00
8:10 AM,62.6,62.6,100,29.86,10.0,WSW,6.9,-,N/A,Fog,Shallow Fog,250,2012-10-16 15:10:00
8:37 AM,64.4,64.4,100,29.87,10.0,West,3.5,-,N/A,,Partly Cloudy,260,2012-10-16 15:37:00
8:53 AM,64.9,63.0,93,29.87,10.0,Calm,Calm,-,N/A,,Partly Cloudy,0,2012-10-16 15:53:00
9:53 AM,75.0,57.9,55,29.86,10.0,Calm,Calm,-,N/A,,Clear,0,2012-10-16 16:53:00
10:53 AM,81.0,51.1,35,29.84,10.0,Calm,Calm,-,N/A,,Clear,0,2012-10-16 17:53:00
11:53 AM,84.9,51.1,31,29.83,10.0,West,6.9,-,N/A,,Clear,260,2012-10-16 18:53:00
12:53 PM,78.1,55.9,46,29.81,10.0,West,11.5,-,N/A,,Clear,260,2012-10-16 19:53:00
1:23 PM,75.2,60.8,61,29.80,10.0,West,12.7,-,N/A,,Partly Cloudy,260,2012-10-16 20:23:00
1:53 PM,73.4,64.4,73,29.78,10.0,WSW,12.7,-,N/A,Fog,Patches of Fog,250,2012-10-16 20:53:00
2:53 PM,75.2,59.0,57,29.76,10.0,West,11.5,-,N/A,Fog,Shallow Fog,270,2012-10-16 21:53:00
3:53 PM,73.4,62.6,69,29.75,10.0,West,11.5,-,N/A,Fog,Shallow Fog,260,2012-10-16 22:53:00
4:53 PM,73.9,57.0,55,29.74,10.0,West,9.2,-,N/A,,Clear,260,2012-10-16 23:53:00
5:53 PM,71.6,62.6,73,29.74,10.0,West,9.2,-,N/A,,Scattered Clouds,260,2012-10-17 00:53:00
6:53 PM,70.0,64.9,84,29.75,10.0,West,9.2,-,N/A,,Clear,270,2012-10-17 01:53:00
7:53 PM,70.0,64.9,84,29.76,10.0,WSW,4.6,-,N/A,,Clear,250,2012-10-17 02:53:00
8:53 PM,70.0,64.0,81,29.76,10.0,North,4.6,-,N/A,,Clear,350,2012-10-17 03:53:00
9:53 PM,70.0,64.0,81,29.75,10.0,Calm,Calm,-,N/A,,Clear,0,2012-10-17 04:53:00
10:53 PM,71.1,63.0,75,29.74,10.0,Calm,Calm,-,N/A,,Clear,0,2012-10-17 05:53:00
11:53 PM,68.0,63.0,84,29.74,10.0,NE,3.5,-,N/A,,Clear,50,2012-10-17 06:53:00